User: anonymous   Login
Location: Raleigh
(35.7720°N, 78.6390°W)
Time: 13:30:13
(UTC-05:00)
Language:

JAS-2 - Orbit

View from above orbital plane
View from above orbital plane
View from above satellite
View from above satellite

Ground track
Ground track

The orbit data is extracted from the following two-line orbital elements,

1 24278U 96046B   16035.77291409 -.00000052  00000-0 -17115-4 0  9990
2 24278  98.5763 338.4895 0350257 187.9289 171.6225 13.53063088961477
Epoch (UTC): 04 February 2016 18:32:59
Eccentricity: 0.0350257
inclination: 98.5763°
perigee height: 800 km
apogee height: 1321 km
right ascension of ascending node: 338.4895°
argument of perigee: 187.9289°
revolutions per day: 13.53063088
mean anomaly at epoch: 171.6225°
orbit number at epoch: 96147

The dashed part of the orbit path shows where the satellite is in the earth's shadow,  

DLR